Imperial, CA

3:56 AM PDT on April 20, 2018 (GMT -0700)
Imperial County

Weather History for KIPL - April, 2013

Change the Weather History Date:

Tuesday, April 23, 2013

  Actual Average Record
Temperature  
Mean Temperature 76 °F -  
Max Temperature 91 °F 87 °F 102 °F (1949)
Min Temperature 62 °F 56 °F 45 °F (1967)
Cooling Degree Days 11    
Growing Degree Days 26 (Base 50)    
Moisture  
Dew Point 33 °F    
Average Humidity 25    
Maximum Humidity 58    
Minimum Humidity 8    
Precipitation  
Precipitation 0.00 in - - ()
Sea Level Pressure  
Sea Level Pressure 29.79 in    
Wind  
Wind Speed 6 mph (NW)    
Max Wind Speed 16 mph    
Max Gust Speed 17 mph    
Visibility 10 miles    
Events      
Averages and records for this station are not official NWS values.
T = Trace of Precipitation, MM = Missing Value Source: NWS Daily Summary

Daily Weather History Graph

Daily Weather History Graph

Search for Another Location

Airport or City:

Astronomy

Apr. 23, 2013 Rise Set
Actual Time 6:03 AM PDT 7:18 PM PDT
Civil Twilight 5:37 AM PDT 7:44 PM PDT
Nautical Twilight 5:06 AM PDT 8:15 PM PDT
Astronomical Twilight 4:34 AM PDT 8:47 PM PDT
Moon 5:23 PM PDT (4/23) 4:26 AM PDT (4/23)
Length of Visible Light 14h 07m
Length of Day
13h 15m
Waxing Gibbous, 94% of the Moon is Illuminated
Apr 23
Waxing Gibbous
Apr 25
Full
May 2
Last Quarter
May 9
New
May 17
First Quarter

Hourly Weather History & Observations

Time (PDT) Temp. Dew Point Humidity Pressure Visibility Wind Dir Wind Speed Gust Speed Precip Events Conditions
12:53 AM 71.1 °F 36.0 °F 28% 29.72 in 10.0 mi West 10.4 mph - N/A   Clear
1:53 AM 70.0 °F 36.0 °F 29% 29.71 in 10.0 mi West 10.4 mph - N/A   Clear
2:53 AM 69.8 °F 35.6 °F 28% 29.70 in 10.0 mi SW 4.6 mph - N/A   Clear
3:53 AM 66.0 °F 45.0 °F 47% 29.71 in 10.0 mi South 5.8 mph - N/A   Clear
4:53 AM 63.0 °F 45.0 °F 52% 29.73 in 10.0 mi Calm Calm - N/A   Clear
5:53 AM 62.1 °F 46.9 °F 58% 29.76 in 10.0 mi Calm Calm - N/A   Clear
6:53 AM 63.0 °F 46.0 °F 54% 29.79 in 10.0 mi NW 3.5 mph - N/A   Clear
7:53 AM 69.1 °F 46.9 °F 45% 29.83 in 10.0 mi WNW 5.8 mph - N/A   Clear
8:53 AM 75.0 °F 55.0 °F 50% 29.85 in 10.0 mi WNW 4.6 mph - N/A   Clear
9:53 AM 84.9 °F 33.1 °F 16% 29.87 in 10.0 mi NNE 11.5 mph - N/A   Clear
10:53 AM 87.1 °F 21.0 °F 9% 29.88 in 10.0 mi NE 16.1 mph - N/A   Clear
11:53 AM 88.0 °F 21.9 °F 9% 29.87 in 10.0 mi NE 8.1 mph - N/A   Clear
12:53 PM 89.1 °F 19.9 °F 8% 29.86 in 10.0 mi NE 11.5 mph 17.3 mph N/A   Clear
1:53 PM 90.0 °F 19.9 °F 8% 29.84 in 10.0 mi North 5.8 mph - N/A   Clear
2:53 PM 90.0 °F 19.9 °F 8% 29.81 in 10.0 mi East 3.5 mph - N/A   Clear
3:53 PM 90.0 °F 26.1 °F 10% 29.78 in 10.0 mi NW 6.9 mph - N/A   Clear
4:53 PM 90.0 °F 26.1 °F 10% 29.77 in 10.0 mi WNW 4.6 mph - N/A   Clear
5:53 PM 88.0 °F 30.0 °F 12% 29.76 in 10.0 mi WNW 3.5 mph - N/A   Clear
6:53 PM 86.0 °F 27.0 °F 12% 29.76 in 10.0 mi Calm Calm - N/A   Clear
7:53 PM 79.0 °F 35.1 °F 20% 29.77 in 10.0 mi WSW 3.5 mph - N/A   Clear
8:53 PM 77.0 °F 34.0 °F 21% 29.78 in 10.0 mi Calm Calm - N/A   Clear
9:53 PM 75.9 °F 32.0 °F 20% 29.80 in 10.0 mi East 3.5 mph - N/A   Clear
10:53 PM 73.0 °F 34.0 °F 24% 29.80 in 10.0 mi Calm Calm - N/A   Clear
11:53 PM 72.0 °F 30.9 °F 22% 29.80 in 10.0 mi Calm Calm - N/A   Clear